Location: Borea
(45.6167°N, 23.0167°E)
Time: 11:03:54
(UTC+00:00)

Cosmos 2360 Rocket - Pass Details

Date: 03 February 2023
Orbit: 832 x 846 km, 71.0° (Epoch: 30 March)

Event Time Altitude Azimuth Distance (km) Brightness Sun altitude
Rises 16:19:28 0° 176° (S) 3,370 5.5 -7.9°
Reaches altitude 10° 16:22:06 10° 166° (SSE) 2,443 4.6 -8.3°
Maximum altitude 16:27:02 33° 105° (ESE) 1,389 2.9 -9.2°
Drops below altitude 10° 16:32:00 10° 43° (NE) 2,466 4.1 -10.0°
Enters shadow 16:33:08 - 39° (NE) 2,857 4.5 -10.2°
